GFSFLT1_850_dewp_000.txt.gz
Dewpoint
-4 -5 -5 -2 -1 -3 -3 -5 -6 -3 -3 -3 -3 -3 -3 -3 -3 -3 -3 -4 -5 -5 -6 -6 -5 -5 -5 -6 -6 -6 -6 -6
-6 -6 -5 -5 -3 -3 -4 -5 -3 -3 -3 -3 -2 -2 -2 -2 -2 -2 -3 -3 -3 -4 -5 -5 -6 -5 -6 -5 -6 -5 -5 -5
-5 -5 -5 -4 -4 -4 -5 -5 -4 -3 -3 -3 -3 -3 -2 -2 -2 -1 -1 -2 -2 -2 -3 -3 -4 -5 -5 -5 -5 -5 -5 -5
-5 -5 -5 -5 -4 -4 -4 -4 -4 -4 -3 -3 -3 -2 -2 -1 -1 -1 -2 -3 -3 -2 -1 -2 -4 -5 -6 -6 -4 -4 -4 -4
-5 -4 -4 -4 -4 -4 -4 -4 -3 -3 -2 -1 -1 -1 -1 -1 -1 -3 -4 -4 -4 -3 -4 -2 -1 -3 -3 -5 -4 -3 -4 -4
-4 -4 -4 -4 -4 -4 -3 -2 -2 -1 -1 -1 -1 -1 -2 -2 -2 -4 -4 -5 -4 -4 -4 -4 -5 -4 -4 -4 -1 -3 -1 -2
-3 -3 -3 -3 -1 -1 -0 -1 -1 -1 -1 -1 -2 -3 -4 -5 -7 -8 -9 -9 -7 -6 -6 -6 -6 -4 -3 -1 -2 -2 -3 -5
-3 -2 -1 -0 -0 -1 -1 -1 -1 -1 -2 -2 -4 -5 -7 -8 -10 -12 -11 -7 -5 -6 -6 -6 -3 -2 -2 -2 -4 -6 -6 -5
0 0 -0 -1 -0 -0 -0 -1 -2 -2 -4 -5 -6 -6 -6 -8 -10 -11 -10 -4 -5 -5 -5 -4 -2 -3 -4 -4 -3 -2 -2 -1
-1 -1 -1 -0 0 -0 -1 -3 -4 -4 -6 -6 -5 -6 -7 -9 -7 -9 -5 -4 -5 -5 -4 -3 -4 -4 -4 -1 -1 -1 -2 -4
-0 -0 -0 0 1 -2 -3 -3 -4 -4 -5 -5 -5 -4 -7 -7 -8 -7 -4 -4 -4 -5 -5 -5 -5 -5 -4 -2 -2 -8 -11 -9
0 0 1 1 -0 -2 -2 -4 -7 -7 -5 -3 -1 -4 -6 -8 -6 -5 -4 -5 -5 -6 -5 -5 -4 -5 -9 -11 -9 -9 -10 -11
-0 1 1 2 -1 0 -0 -3 -3 -2 -1 -1 -4 -5 -7 -4 -5 -5 -5 -6 -6 -6 -4 -3 -7 -8 -10 -13 -11 -10 -10 -11
-0 -0 2 1 -1 1 2 -0 0 -0 -2 -4 -5 -6 -3 -6 -5 -6 -5 -6 -5 -5 -4 -4 -8 -9 -9 -9 -9 -10 -12 -16
0 1 2 -0 -0 2 1 -0 -0 -3 -4 -5 -6 -4 -3 -6 -5 -5 -6 -5 -4 -3 -3 -5 -7 -8 -10 -10 -11 -14 -16 -16
1 3 0 -2 -1 -2 -5 -1 -3 -4 -4 -4 -4 -2 -2 -4 -5 -5 -4 -4 -4 -4 -5 -5 -6 -9 -11 -13 -14 -15 -14 -14
2 -2 -3 -2 -4 -6 -2 -2 -5 -3 -3 -2 -2 -3 -3 -3 -4 -5 -5 -5 -6 -7 -8 -9 -10 -12 -14 -13 -13 -12 -12 -12
1 -1 -4 -5 -2 -1 -3 -5 -4 -3 -3 -3 -5 -6 -5 -6 -8 -9 -9 -9 -10 -11 -12 -13 -13 -13 -12 -12 -11 -12 -13 -13
-4 -5 -1 -1 -1 -4 -4 -2 -3 -4 -4 -5 -6 -7 -9 -10 -12 -14 -15 -14 -14 -13 -13 -13 -13 -13 -12 -12 -12 -13 -15 -15

GFSFLT1_850_dewp_003.txt.gz
Dewpoint
5 -2 -3 -3 1 4 -2 -6 -6 -3 -2 -2 -3 -2 -3 -3 -3 -3 -3 -3 -3 -3 -2 -3 -3 -4 -5 -5 -6 -6 -6 -6
-5 -5 -6 -4 2 1 -4 -5 -3 -2 -3 -3 -3 -3 -3 -3 -3 -2 -2 -2 -2 -2 -3 -3 -2 -3 -3 -5 -5 -4 -6 -6
-5 -5 -5 -4 -3 -3 -4 -4 -4 -3 -4 -4 -3 -3 -3 -3 -2 -2 -2 -2 -2 -3 -4 -4 -3 -2 -1 -3 -4 -3 -3 -5
-5 -5 -5 -4 -4 -4 -3 -3 -4 -4 -3 -2 -1 -2 -2 -2 -2 -2 -2 -3 -4 -5 -5 -5 -5 -5 -4 -2 -2 -4 -1 -2
-4 -4 -4 -4 -4 -3 -3 -3 -2 -1 -1 -1 -1 -1 -1 -2 -3 -5 -7 -9 -11 -12 -12 -10 -7 -6 -6 -5 -5 -3 -3 -0
-4 -4 -4 -4 -3 -2 -1 -1 -1 -1 -1 -1 -2 -2 -3 -5 -7 -10 -12 -16 -18 -17 -15 -11 -9 -7 -7 -7 -7 -4 -2 -1
-3 -2 -0 -0 -0 -0 -1 -1 -1 -2 -3 -4 -4 -4 -6 -8 -11 -14 -16 -17 -17 -15 -10 -7 -6 -6 -6 -5 -4 -2 -0 -0
-2 -1 -0 -0 -1 -1 -1 -1 -2 -3 -3 -4 -6 -7 -9 -10 -12 -14 -15 -16 -13 -7 -5 -5 -6 -5 -4 -4 -4 -3 -2 -1
0 -0 -1 -1 -1 -0 -1 -1 -2 -1 -3 -5 -7 -9 -9 -11 -11 -12 -14 -12 -9 -4 -5 -4 -4 -4 -5 -4 -3 -3 -3 -2
-0 -0 -1 -0 0 -0 -0 -1 -2 -4 -9 -9 -7 -4 -4 -7 -9 -10 -10 -8 -4 -4 -4 -4 -4 -4 -4 -3 -4 -3 -2 -4
-1 -2 -2 -1 1 1 -1 -2 -2 -4 -4 -2 -1 -2 -5 -7 -8 -7 -6 -5 -4 -4 -5 -6 -9 -8 -7 -6 -5 -7 -9 -10
-1 -1 -1 0 2 1 -1 -0 1 -2 -1 -0 -3 -6 -7 -7 -5 -5 -5 -4 -4 -7 -6 -7 -5 -3 -2 -5 -6 -7 -10 -10
0 -0 -0 1 2 1 -2 1 -0 -1 -0 -4 -6 -5 -5 -5 -4 -5 -4 -4 -6 -7 -6 -5 -3 -4 -6 -7 -9 -9 -9 -10
1 1 1 3 2 -0 -0 -4 -2 -2 -4 -5 -5 -4 -4 -3 -4 -4 -4 -4 -4 -4 -4 -4 -5 -6 -7 -9 -11 -12 -11 -13
2 2 2 2 -1 -2 -4 -5 -2 -3 -7 -7 -4 -2 -3 -3 -3 -4 -4 -4 -4 -4 -5 -6 -6 -6 -6 -9 -10 -10 -14 -15
3 2 1 -1 -3 -4 -4 -1 -3 -6 -6 -4 -3 -3 -3 -2 -3 -4 -6 -9 -10 -10 -10 -9 -9 -9 -11 -12 -14 -14 -14 -14
1 -0 -2 -3 -4 -2 -1 -5 -6 -4 -5 -4 -3 -5 -6 -7 -9 -10 -12 -15 -14 -13 -13 -13 -13 -14 -14 -14 -13 -12 -12 -12
0 -1 -5 -6 -0 -1 -7 -6 -3 -4 -6 -5 -7 -8 -10 -10 -11 -13 -17 -17 -16 -15 -14 -14 -14 -14 -13 -12 -11 -11 -11 -12
-3 -8 -5 -0 -2 -7 -7 -3 -3 -5 -7 -7 -6 -9 -11 -12 -15 -17 -16 -16 -15 -15 -15 -14 -13 -13 -12 -13 -13 -14 -13 -13

GFSFLT1_850_dewp_006.txt.gz
Dewpoint
4 4 5 4 1 6 8 2 -0 -5 -1 -2 -2 -3 -2 -3 -3 -3 -2 -2 -2 -2 -2 -2 1 5 4 3 3 3 2 1
2 1 -4 -2 1 7 5 4 -5 -4 -1 -1 -1 -1 -0 0 -0 -2 -2 -2 -2 -2 -3 -3 -4 1 2 -1 3 4 4 3
-1 -1 -1 2 4 4 2 -1 -3 -3 -2 -3 -2 -2 0 -1 -1 -2 -2 -3 -5 -9 -10 -7 -2 -0 1 2 3 3 4 4
-2 -0 -1 -2 -2 -1 -1 -2 -3 -3 -1 0 0 -0 -0 -0 -1 -3 -5 -6 -11 -15 -16 -16 -15 -8 -2 -0 1 2 1 2
-2 -1 -0 -3 -3 -3 -3 -2 -1 -1 -2 -2 -2 -0 -1 -3 -2 -2 -5 -9 -17 -20 -20 -21 -20 -13 -3 -1 -2 0 1 1
0 1 1 1 1 -0 -0 1 -0 -1 -2 -1 -1 -1 -0 -0 -1 -2 -5 -6 -9 -15 -18 -18 -13 -8 -3 -6 -4 0 1 1
1 1 1 2 2 -0 -0 0 1 -1 -1 -2 -4 -1 1 -1 -3 -4 -5 -5 -5 -4 -9 -11 -6 -4 -2 -2 -1 -1 0 1
1 1 1 2 1 -1 -1 -0 1 1 1 -0 -2 -3 -2 -2 -3 -3 -4 -5 -5 -3 -7 -1 -1 -1 -1 -0 0 0 -1 -1
1 1 1 2 1 -1 -0 0 1 1 -1 -3 -7 -2 -1 -1 -2 -4 -6 -5 -5 -5 -1 -0 -0 -0 -0 0 0 -1 -1 -1
0 0 1 2 3 2 1 0 1 0 -0 0 -4 -0 -1 -4 -8 -8 -4 -4 -2 -1 -0 -1 -3 -2 -2 -2 -2 -3 -3 -3
0 0 0 1 2 2 1 2 2 2 2 -0 -1 -3 -4 -7 -4 -3 -3 -2 -1 -2 -3 -3 -3 -2 -3 -4 -4 -4 -4 -5
1 1 1 1 2 3 2 3 2 2 0 -1 -1 -2 -3 -3 -3 -2 -2 -2 -3 -3 -3 -3 -2 -3 -3 -3 -4 -4 -5 -6
0 1 2 2 3 2 2 2 -1 -4 -3 -2 -1 -2 -3 -3 -2 -2 -1 -2 -2 -2 -2 -3 -3 -4 -4 -4 -4 -5 -7 -9
0 1 2 2 1 1 -1 -3 -3 -1 -2 -3 -3 -2 -2 -2 -2 -2 -2 -3 -3 -3 -3 -3 -4 -4 -4 -5 -7 -8 -8 -8
2 3 2 1 1 -1 -3 -0 -1 -3 -3 -3 -3 -2 -2 -4 -5 -3 -3 -4 -4 -5 -6 -6 -6 -8 -9 -9 -10 -9 -9 -10
2 2 1 -0 -1 -1 -0 -0 -3 -4 -2 -3 -3 -4 -4 -5 -6 -7 -7 -9 -11 -11 -11 -11 -11 -11 -12 -11 -10 -10 -9 -9
1 1 -2 -3 -3 -1 -0 -3 -3 -2 -3 -4 -5 -5 -6 -7 -8 -10 -11 -12 -11 -11 -11 -11 -10 -11 -10 -12 -13 -9 -10 -10
-2 -1 -4 -3 -2 0 -3 -4 -3 -3 -4 -5 -5 -5 -8 -9 -11 -12 -12 -11 -11 -11 -11 -10 -10 -10 -10 -12 -15 -13 -11 -10
-3 -4 -4 -3 -1 -2 -3 -4 -4 -4 -5 -5 -4 -6 -9 -11 -12 -12 -11 -11 -11 -11 -10 -10 -10 -10 -11 -13 -14 -13 -10 -10

GFSFLT1_850_dewp_009.txt.gz
Dewpoint
2 5 3 3 4 5 6 8 2 4 4 5 2 2 2 1 1 2 2 2 1 -0 1 2 2 3 2 2 3 3 4 3
4 2 2 4 7 6 6 5 4 3 2 1 0 0 1 1 1 2 2 1 -3 -4 -1 -1 -1 -1 -1 -4 -1 1 2 2
0 2 2 3 6 6 4 3 2 1 1 2 1 1 2 2 1 1 0 0 -1 -1 -3 -3 -3 -2 -3 -3 -2 -0 1 1
0 1 3 3 3 3 2 2 2 2 1 1 1 1 0 0 1 1 1 1 -1 -2 -2 -1 -1 -1 -1 -2 -1 -1 0 0
-1 1 2 4 4 3 3 2 2 2 -1 2 2 2 1 2 1 1 0 -2 -3 -3 -3 -1 0 -1 -1 -1 -2 -1 -0 -0
0 1 2 3 4 4 3 2 2 2 2 2 2 3 3 2 1 -0 -2 -3 -3 -3 -3 -2 -2 -1 -0 0 0 1 1 -0
1 1 1 3 4 3 3 2 1 2 3 3 3 2 1 0 -0 -1 -2 -2 -3 -4 -3 -1 -0 -0 0 -0 -0 0 0 0
1 1 1 2 3 3 3 2 2 1 2 2 1 0 1 0 -1 -1 -2 -3 -3 -3 -1 -0 -1 -1 -1 -0 -0 -1 1 -0
1 1 1 2 2 2 3 3 2 1 1 2 2 1 1 0 -1 -1 -2 -3 -2 -2 -1 -1 -1 -1 -2 -1 -0 -1 -1 -1
-0 0 0 1 2 2 3 3 2 2 2 2 2 1 0 -0 -1 -2 -2 -2 -2 -2 -2 -2 -2 -3 -2 -2 -2 -2 -2 -2
-0 -0 0 1 1 1 2 3 2 2 2 1 0 -0 -0 -1 -2 -2 -2 -2 -2 -2 -3 -2 -1 -2 -2 -2 -3 -3 -3 -3
-0 0 1 2 1 2 2 2 2 1 1 -0 -1 -1 -2 -2 -3 -3 -2 -2 -2 -2 -2 -4 -3 -3 -3 -3 -3 -3 -3 -3
-0 -0 1 2 2 2 1 2 1 0 -1 -2 -2 -3 -3 -4 -3 -3 -3 -2 -2 -2 -2 -3 -3 -3 -3 -3 -4 -4 -5 -5
1 1 1 1 1 1 1 0 -0 -1 -2 -3 -4 -4 -4 -3 -3 -4 -3 -4 -5 -5 -5 -5 -6 -7 -8 -9 -10 -9 -8 -8
1 1 1 1 1 -0 -2 -2 -1 -2 -2 -4 -4 -4 -4 -4 -4 -5 -6 -7 -9 -10 -11 -11 -11 -11 -11 -11 -10 -9 -10 -11
2 1 0 -0 -2 -4 -3 -2 -2 -3 -3 -4 -4 -5 -5 -5 -6 -7 -9 -10 -11 -11 -11 -11 -11 -11 -11 -11 -10 -9 -9 -10
2 -0 -2 -4 -5 -4 -3 -2 -4 -4 -4 -5 -5 -5 -4 -5 -7 -9 -11 -11 -11 -11 -11 -11 -10 -11 -11 -10 -10 -11 -10 -10
1 -2 -3 -4 -5 -5 -4 -3 -5 -5 -5 -5 -6 -5 -4 -6 -8 -11 -12 -12 -11 -11 -11 -11 -10 -10 -9 -10 -10 -11 -10 -10
-2 -3 -4 -6 -7 -7 -6 -3 -5 -5 -5 -6 -5 -5 -5 -7 -9 -12 -12 -12 -11 -11 -11 -10 -9 -10 -8 -9 -10 -10 -10 -10